Lake Texoma Weather Center

Moon Phase Calendar



Lake Texoma Water Level
Online Cameras

 


      

Current Conditions in Kingston
2/26/2024 10:15:02 PM

77°F
Feels Like 77
Clouds
Humidity
41%
Pressure
29.68"
Wind
13.7 mph (SSW)
Dew Point
52°F
UV Index
0/10 (Low)
Visibility
6 mi

Hourly Forecast

Date & Time Mon, Feb 26
10:00 PM
Mon, Feb 26
11:00 PM
Tue, Feb 27
12:00 AM
Tue, Feb 27
1:00 AM
Tue, Feb 27
2:00 AM
Tue, Feb 27
3:00 AM
Tue, Feb 27
4:00 AM
Tue, Feb 27
5:00 AM
Tue, Feb 27
6:00 AM
Tue, Feb 27
7:00 AM
Tue, Feb 27
8:00 AM
Tue, Feb 27
9:00 AM
Tue, Feb 27
10:00 AM
Tue, Feb 27
11:00 AM
Tue, Feb 27
12:00 PM
Tue, Feb 27
1:00 PM
Tue, Feb 27
2:00 PM
Tue, Feb 27
3:00 PM
Tue, Feb 27
4:00 PM
Tue, Feb 27
5:00 PM
Tue, Feb 27
6:00 PM
Tue, Feb 27
7:00 PM
Tue, Feb 27
8:00 PM
Tue, Feb 27
9:00 PM
Tue, Feb 27
10:00 PM
Tue, Feb 27
11:00 PM
Wed, Feb 28
12:00 AM
Wed, Feb 28
1:00 AM
Wed, Feb 28
2:00 AM
Wed, Feb 28
3:00 AM
Wed, Feb 28
4:00 AM
Wed, Feb 28
5:00 AM
Wed, Feb 28
6:00 AM
Wed, Feb 28
7:00 AM
Wed, Feb 28
8:00 AM
Wed, Feb 28
9:00 AM
Wed, Feb 28
10:00 AM
Wed, Feb 28
11:00 AM
Wed, Feb 28
12:00 PM
Wed, Feb 28
1:00 PM
Wed, Feb 28
2:00 PM
Wed, Feb 28
3:00 PM
Wed, Feb 28
4:00 PM
Wed, Feb 28
5:00 PM
Wed, Feb 28
6:00 PM
Wed, Feb 28
7:00 PM
Wed, Feb 28
8:00 PM
Wed, Feb 28
9:00 PM
Condition
Clouds

Clouds

Clouds

Clouds

Clouds

Clouds

Clouds

Clouds

Clouds

Clouds

Clouds

Clouds

Clouds

Clouds

Clouds

Clouds

Clouds

Clouds

Clouds

Clouds

Clouds

Clouds

Clouds

Clouds

Clouds

Clouds

Clouds

Clouds

Clouds

Clouds

Clouds

Clouds

Clouds

Clouds

Clouds

Clouds

Clouds

Clouds

Clouds

Clouds

Clouds

Clouds

Clouds

Clouds

Clouds

Clouds

Clouds

Clouds
Temperature 77°F77°F76°F74°F71°F69°F70°F67°F65°F64°F66°F70°F75°F80°F85°F85°F85°F83°F81°F81°F79°F79°F79°F79°F78°F56°F53°F48°F46°F44°F43°F41°F40°F39°F39°F40°F42°F44°F46°F47°F50°F50°F50°F49°F48°F46°F45°F45°F
Feels Like 77°F76°F75°F73°F71°F68°F69°F66°F64°F63°F66°F70°F74°F79°F82°F82°F82°F81°F80°F80°F79°F79°F79°F79°F76°F53°F50°F41°F38°F36°F34°F32°F31°F30°F29°F31°F33°F37°F39°F42°F45°F45°F45°F45°F45°F44°F42°F42°F
Cloudiness 96%96%96%97%90%80%84%78%71%59%78%85%89%91%93%100%100%100%100%100%100%100%100%100%100%100%100%100%100%99%99%99%100%100%100%100%100%100%100%100%100%100%100%100%100%100%100%100%
Visibility 6 mi6 mi6 mi6 mi6 mi6 mi6 mi6 mi6 mi6 mi6 mi6 mi6 mi6 mi6 mi6 mi6 mi6 mi6 mi6 mi6 mi6 mi6 mi6 mi6 mi6 mi6 mi6 mi6 mi6 mi6 mi6 mi6 mi6 mi6 mi6 mi6 mi6 mi6 mi6 mi6 mi6 mi6 mi6 mi6 mi6 mi6 mi6 mi
Precipitation 0%0%0%0%0%0%0%0%0%0%0%0%0%0%0%0%0%0%0%0%0%0%0%0%0%0%0%0%0%0%0%0%0%0%0%0%0%0%0%0%0%0%0%0%0%0%0%0%
Humidity 41%43%45%48%50%52%50%57%63%69%69%60%43%29%21%21%22%23%24%25%26%23%22%22%22%45%40%40%44%47%48%47%44%40%38%33%29%27%26%24%23%22%22%23%26%27%28%30%
Dew Point 52°F53°F53°F53°F52°F51°F50°F51°F52°F54°F56°F56°F52°F45°F41°F41°F43°F42°F41°F42°F41°F38°F37°F36°F37°F35°F29°F25°F25°F25°F24°F23°F20°F17°F15°F13°F12°F12°F12°F13°F13°F13°F13°F13°F15°F14°F14°F15°F
Pressure 29.68"29.68"29.68"29.65"29.62"29.62"29.62"29.62"29.62"29.62"29.62"29.62"29.62"29.62"29.59"29.56"29.56"29.53"29.53"29.53"29.53"29.56"29.59"29.59"29.62"29.77"29.85"29.91"29.97"30.03"30.06"30.15"30.21"30.24"30.3"30.33"30.36"30.36"30.36"30.33"30.33"30.33"30.33"30.36"30.36"30.36"30.36"30.39"
Wind Speed 13.7 mph15.4 mph15.2 mph15.3 mph13.5 mph13 mph12.2 mph10 mph8.4 mph9 mph9.8 mph13.6 mph15 mph16.6 mph18.5 mph19.3 mph18.2 mph20.1 mph17.6 mph17.2 mph17 mph18.2 mph18.4 mph20.5 mph18.7 mph23.6 mph23.7 mph22.9 mph22.9 mph20.7 mph19.3 mph19.3 mph19.3 mph18.1 mph17.8 mph18.2 mph17.2 mph16.6 mph14.8 mph13.7 mph12.1 mph12 mph11.2 mph9 mph6.2 mph5.1 mph6.2 mph4.5 mph
Wind
Direction
197°
SSW
197°
SSW
206°
SSW
213°
SSW
210°
SSW
212°
SSW
215°
SW
213°
SSW
215°
SW
200°
SSW
198°
SSW
200°
SSW
218°
SW
227°
SW
241°
WSW
244°
WSW
245°
WSW
241°
WSW
238°
WSW
244°
WSW
236°
SW
243°
WSW
241°
WSW
235°
SW
240°
WSW
360°
N
356°
N
359°
N

N

N

N

N

N

N
12°
NNE
18°
NNE
21°
NNE
22°
NNE
27°
NNE
39°
NE
42°
NE
38°
NE
48°
NE
57°
ENE
63°
ENE
59°
ENE
64°
ENE
101°
E

Daily Forecast

Date High Low Precip. Humidity
Today
Feb 26

Clouds
90 °F
56 °F
0%
20%
Tuesday
Feb 27

Clouds
85 °F
56 °F
0%
21%
Wednesday
Feb 28

Clouds
53 °F
39 °F
0%
26%
Thursday
Feb 29

Rain
48 °F
40 °F
100%
37%
Friday
Mar 1

Clouds
73 °F
41 °F
77%
63%
Saturday
Mar 2

Clear
80 °F
55 °F
0%
31%
Sunday
Mar 3

Rain
69 °F
62 °F
37%
83%
Monday
Mar 4

Rain
66 °F
49 °F
76%
34%
Tuesday
Mar 5

Clouds
63 °F
42 °F
0%
18%
Wednesday
Mar 6

Rain
49 °F
43 °F
100%
65%
Thursday
Mar 7

Rain
70 °F
44 °F
100%
46%
Friday
Mar 8

Clouds
60 °F
49 °F
17%
61%
Saturday
Mar 9

Clear
69 °F
44 °F
0%
30%
Sunday
Mar 10

Clouds
64 °F
53 °F
0%
44%
Monday
Mar 11

Clouds
81 °F
58 °F
0%
32%
Tuesday
Mar 12

Clear
82 °F
56 °F
0%
24%

Temperature 8-14 Day Outlook



Precipitation 8-14 Day Outlook




Quick Links
Lake Texoma News
Lake Texoma Photos
Lake Texoma Videos




About Us
Contact Us
Site Map
Search Site
Advertise With Us
   
Texoma.USLakes.info
THE LAKE TEXOMA WEBSITE

Copyright 2024, Lakes Online
Privacy    |    Legal